Ord, NE

11:58 AM CDT on April 30, 2017 (GMT -0500)
Sharp

Weather History for KODX - February, 2014

Change the Weather History Date:

Friday, February 28, 2014

  Actual Average Record
Temperature  
Mean Temperature 23 °F 31 °F  
Max Temperature 36 °F 44 °F 79 °F (2006)
Min Temperature 10 °F 19 °F -8 °F (2009)
Degree Days  
Heating Degree Days 42 34  
Month to date heating degree days 1241 1041  
Since 1 July heating degree days 5017  
Cooling Degree Days 0 0  
Month to date cooling degree days 0 0  
Year to date cooling degree days 0 0  
Moisture  
Dew Point 9 °F    
Average Humidity 60    
Maximum Humidity 73    
Minimum Humidity 47    
Precipitation  
Precipitation T in 0.01 in 0.63 in (1987)
Month to date precipitation 0.19 0.44  
Year to date precipitation 0.25 0.81  
Sea Level Pressure  
Sea Level Pressure 29.95 in    
Wind  
Wind Speed 13 mph (North)    
Max Wind Speed 30 mph    
Max Gust Speed 37 mph    
Visibility 9 miles    
Events Rain , Snow    
T = Trace of Precipitation, MM = Missing Value Source: NWS Daily Summary

Daily Weather History Graph

Daily Weather History Graph

Search for Another Location

Airport or City:

Trip Planner

Search our weather history database for the weather conditions in past years. The results will help you decide how hot, cold, wet, or windy it might be!

Date:

Astronomy

Feb. 28, 2014 Rise Set
Actual Time 7:12 AM CST 6:25 PM CST
Civil Twilight 6:44 AM CST 6:53 PM CST
Nautical Twilight 6:12 AM CST 7:25 PM CST
Astronomical Twilight 5:39 AM CST 7:57 PM CST
Moon 6:27 AM CST (2/28) 6:04 PM CST (2/28)
Length of Visible Light 12h 08m
Length of Day
11h 13m
Waning Crescent, 1% of the Moon is Illuminated
Feb 28
Waning Crescent
Mar 1
New
Mar 8
First Quarter
Mar 16
Full
Mar 23
Last Quarter

Hourly Weather History & Observations

Time (CST) Temp. Windchill Dew Point Humidity Pressure Visibility Wind Dir Wind Speed Gust Speed Precip Events Conditions
12:53 AM 15.1 °F 4.2 °F 1.0 °F 54% 29.80 in 10.0 mi SSE 8.1 mph - N/A   Clear
1:53 AM 16.0 °F 6.3 °F 1.9 °F 54% 29.78 in 10.0 mi SE 6.9 mph - N/A   Clear
2:53 AM 15.1 °F 5.2 °F 1.9 °F 56% 29.77 in 10.0 mi SSE 6.9 mph - N/A   Clear
3:53 AM 14.0 °F 5.1 °F 1.9 °F 59% 29.74 in 10.0 mi South 5.8 mph - N/A   Clear
4:53 AM 12.9 °F 5.2 °F 1.9 °F 62% 29.74 in 10.0 mi SSE 4.6 mph - N/A   Clear
5:53 AM 12.9 °F - 1.9 °F 62% 29.75 in 10.0 mi Calm Calm - N/A   Clear
6:53 AM 10.9 °F - 3.0 °F 70% 29.75 in 10.0 mi Calm Calm - N/A   Clear
7:53 AM 14.0 °F - 3.9 °F 64% 29.76 in 10.0 mi Calm Calm - N/A   Clear
8:53 AM 19.0 °F - 7.0 °F 59% 29.81 in 10.0 mi Calm Calm - N/A   Clear
9:53 AM 27.0 °F 19.5 °F 12.0 °F 53% 29.83 in 10.0 mi West 6.9 mph - N/A   Clear
10:53 AM 33.1 °F 22.6 °F 16.0 °F 50% 29.85 in 10.0 mi NW 16.1 mph 25.3 mph 0.00 in Rain Light Rain
11:53 AM 33.1 °F 21.5 °F 19.9 °F 59% 29.88 in 10.0 mi North 19.6 mph - 0.00 in   Overcast
12:25 PM 30.0 °F 16.6 °F 18.0 °F 61% 29.82 in 10.0 mi North 23.0 mph 33.4 mph N/A   Overcast
12:53 PM 30.0 °F 15.4 °F 18.0 °F 61% 29.91 in 10.0 mi NNW 27.6 mph 33.4 mph N/A   Overcast
1:11 PM 30.0 °F 15.7 °F 17.1 °F 59% 29.81 in 10.0 mi North 26.5 mph 36.8 mph N/A   Overcast
1:53 PM 28.0 °F 14.3 °F 15.1 °F 58% 29.97 in 10.0 mi North 21.9 mph 32.2 mph N/A   Overcast
2:53 PM 27.0 °F 12.5 °F 14.0 °F 58% 30.00 in 10.0 mi North 23.0 mph 31.1 mph N/A   Overcast
3:49 PM 26.6 °F 12.7 °F 15.8 °F 64% 29.93 in 4.0 mi NNW 20.7 mph 26.5 mph 0.00 in Snow Light Snow
3:53 PM 26.1 °F 11.0 °F 16.0 °F 66% 30.03 in 3.0 mi North 24.2 mph 28.8 mph 0.00 in Snow Light Snow
4:10 PM 25.0 °F 9.9 °F 15.1 °F 66% 29.93 in 5.0 mi North 23.0 mph 31.1 mph 0.00 in Snow Light Snow
4:53 PM 24.1 °F 9.0 °F 16.0 °F 71% 30.04 in 5.0 mi North 21.9 mph 28.8 mph 0.00 in Snow Light Snow
5:30 PM 21.0 °F 4.6 °F 12.0 °F 68% 29.95 in 10.0 mi North 23.0 mph 32.2 mph 0.00 in   Partly Cloudy
5:53 PM 19.9 °F 4.3 °F 10.9 °F 68% 30.08 in 10.0 mi North 19.6 mph 25.3 mph 0.00 in   Partly Cloudy
6:53 PM 17.1 °F 2.0 °F 8.1 °F 68% 30.14 in 10.0 mi North 16.1 mph 23.0 mph N/A   Clear
7:53 PM 17.1 °F 1.5 °F 9.0 °F 71% 30.17 in 9.0 mi North 17.3 mph - N/A   Overcast
8:48 PM 15.8 °F 2.1 °F 6.8 °F 68% 30.08 in 10.0 mi North 12.7 mph 24.2 mph 0.00 in   Overcast
8:53 PM 16.0 °F 1.1 °F 5.0 °F 62% 30.19 in 10.0 mi North 15.0 mph 24.2 mph 0.00 in   Overcast
9:53 PM 16.0 °F 1.7 °F 6.1 °F 65% 30.22 in 10.0 mi North 13.8 mph - N/A   Overcast
10:26 PM 15.1 °F 0.5 °F 5.0 °F 64% 30.14 in 10.0 mi North 13.8 mph - N/A   Overcast
10:53 PM 15.1 °F -0.6 °F 5.0 °F 64% 30.24 in 10.0 mi North 16.1 mph - N/A   Overcast
11:53 PM 14.0 °F 1.2 °F 3.0 °F 62% 30.27 in 10.0 mi North 10.4 mph - N/A   Overcast